When you browse on this site, cookies collect data to enhance your experience and personalize the content and advertising you see.
Visit our Privacy Policy to learn more. By continuing to use the site, you agree to this use of cookies and data.
  • In Österreich
  • Länderverzeichnis
  • Für 7 Tage
  • Wassertemperatur
  • Wetterkarte
  • News
  • Widgets
  • user-avatar
    Anmelden

    Stündliche Wetter Duala

    Heute, 8 Dezember, Sonntag

    Zeit Temperatur Niederschläge Wind Luftdruck Luftfeuchtigkeit
    00:00 +28°C° 0 mm 1 m/S 757 mmHg 88%
    01:00 +27°C° 0 mm 1 m/S 757 mmHg 89%
    02:00 +27°C° 0.1 mm 1 m/S 757 mmHg 89%
    03:00 +27°C° 0.1 mm 1 m/S 757 mmHg 89%
    04:00 +25°C° 0.1 mm 0 m/S 757 mmHg 90%
    05:00 +27°C° 0.1 mm 1 m/S 757 mmHg 89%
    06:00 +27°C° 0.1 mm 1 m/S 757 mmHg 89%
    07:00 +27°C° 0.1 mm 1 m/S 758 mmHg 88%
    08:00 +29°C° 0.1 mm 1 m/S 758 mmHg 79%
    09:00 +30°C° 0.1 mm 0 m/S 758 mmHg 69%
    10:00 +32°C° 0.1 mm 0 m/S 758 mmHg 60%
    11:00 +33°C° 0 mm 0 m/S 757 mmHg 54%
    12:00 +34°C° 0 mm 0 m/S 756 mmHg 49%
    13:00 +35°C° 0 mm 0 m/S 756 mmHg 44%
    14:00 +36°C° 0 mm 1 m/S 755 mmHg 47%
    15:00 +36°C° 0 mm 2 m/S 755 mmHg 50%
    16:00 +35°C° 0 mm 3 m/S 754 mmHg 53%
    17:00 +34°C° 0 mm 3 m/S 754 mmHg 61%
    18:00 +31°C° 0 mm 3 m/S 755 mmHg 69%
    19:00 +29°C° 0 mm 3 m/S 755 mmHg 77%
    20:00 +29°C° 0 mm 3 m/S 756 mmHg 78%
    21:00 +29°C° 0 mm 2 m/S 756 mmHg 80%
    22:00 +29°C° 0 mm 2 m/S 757 mmHg 82%
    23:00 +28°C° 0 mm 1 m/S 757 mmHg 83%

    Morgen, 9 Dezember, Montag

    Zeit Temperatur Niederschläge Wind Luftdruck Luftfeuchtigkeit
    00:00 +28°C° 0 mm 1 m/S 757 mmHg 85%
    01:00 +28°C° 0 mm 1 m/S 757 mmHg 86%
    02:00 +28°C° 0.2 mm 1 m/S 757 mmHg 87%
    03:00 +27°C° 0.2 mm 1 m/S 757 mmHg 88%
    04:00 +25°C° 0.2 mm 0 m/S 757 mmHg 88%
    05:00 +25°C° 0.2 mm 0 m/S 757 mmHg 88%
    06:00 +25°C° 0.2 mm 0 m/S 757 mmHg 87%
    07:00 +25°C° 0.2 mm 0 m/S 758 mmHg 86%
    08:00 +29°C° 0 mm 1 m/S 758 mmHg 78%
    09:00 +31°C° 0 mm 1 m/S 758 mmHg 70%
    10:00 +33°C° 0 mm 1 m/S 758 mmHg 62%
    11:00 +34°C° 0 mm 1 m/S 757 mmHg 57%
    12:00 +36°C° 0 mm 2 m/S 757 mmHg 53%
    13:00 +37°C° 0 mm 2 m/S 756 mmHg 48%
    14:00 +36°C° 0 mm 3 m/S 755 mmHg 52%
    15:00 +35°C° 0 mm 4 m/S 755 mmHg 56%
    16:00 +34°C° 0 mm 4 m/S 755 mmHg 60%
    17:00 +33°C° 0 mm 4 m/S 755 mmHg 65%
    18:00 +30°C° 0 mm 4 m/S 756 mmHg 70%
    19:00 +29°C° 0 mm 3 m/S 756 mmHg 75%
    20:00 +29°C° 0.1 mm 3 m/S 757 mmHg 77%
    21:00 +29°C° 0.1 mm 3 m/S 757 mmHg 80%
    22:00 +28°C° 0.1 mm 2 m/S 757 mmHg 82%
    23:00 +28°C° 0 mm 2 m/S 757 mmHg 83%

    übermorgen, 10 Dezember, Dienstag

    Zeit Temperatur Niederschläge Wind Luftdruck Luftfeuchtigkeit
    00:00 +28°C° 0 mm 1 m/S 757 mmHg 84%
    01:00 +28°C° 0 mm 1 m/S 757 mmHg 85%
    02:00 +27°C° 0.1 mm 1 m/S 757 mmHg 86%
    03:00 +27°C° 0.1 mm 1 m/S 757 mmHg 87%
    04:00 +27°C° 0.1 mm 1 m/S 756 mmHg 87%
    05:00 +27°C° 0.2 mm 1 m/S 757 mmHg 87%
    06:00 +27°C° 0.2 mm 1 m/S 757 mmHg 86%
    07:00 +28°C° 0.2 mm 1 m/S 758 mmHg 85%
    08:00 +29°C° 0.4 mm 1 m/S 758 mmHg 79%
    09:00 +30°C° 0.4 mm 1 m/S 758 mmHg 73%
    10:00 +31°C° 0.4 mm 1 m/S 758 mmHg 67%
    11:00 +32°C° 0.4 mm 2 m/S 758 mmHg 66%
    12:00 +32°C° 0.4 mm 2 m/S 757 mmHg 64%
    13:00 +33°C° 0.4 mm 3 m/S 756 mmHg 63%
    14:00 +33°C° 0.1 mm 3 m/S 756 mmHg 64%
    15:00 +33°C° 0.1 mm 3 m/S 755 mmHg 64%
    16:00 +33°C° 0.1 mm 3 m/S 755 mmHg 65%
    17:00 +30°C° 0 mm 3 m/S 755 mmHg 69%
    18:00 +29°C° 0 mm 2 m/S 756 mmHg 74%
    19:00 +28°C° 0 mm 2 m/S 756 mmHg 79%
    20:00 +28°C° 0.2 mm 2 m/S 757 mmHg 81%
    21:00 +28°C° 0.2 mm 2 m/S 757 mmHg 83%
    22:00 +28°C° 0.2 mm 1 m/S 758 mmHg 85%
    23:00 +27°C° 0.2 mm 1 m/S 758 mmHg 86%

    11 Dezember, Mittwoch

    Zeit Temperatur Niederschläge Wind Luftdruck Luftfeuchtigkeit
    00:00 +27°C° 0.2 mm 1 m/S 757 mmHg 86%
    01:00 +27°C° 0.2 mm 1 m/S 757 mmHg 87%
    02:00 +27°C° 0.1 mm 1 m/S 757 mmHg 88%
    03:00 +27°C° 0.1 mm 1 m/S 757 mmHg 88%
    04:00 +26°C° 0.1 mm 1 m/S 756 mmHg 89%
    05:00 +27°C° 0.2 mm 1 m/S 757 mmHg 88%
    06:00 +25°C° 0.2 mm 0 m/S 757 mmHg 87%
    07:00 +25°C° 0.2 mm 0 m/S 758 mmHg 86%
    08:00 +26°C° 0.1 mm 0 m/S 758 mmHg 79%
    09:00 +30°C° 0.1 mm 1 m/S 758 mmHg 72%
    10:00 +31°C° 0.1 mm 1 m/S 758 mmHg 65%
    11:00 +32°C° 0 mm 2 m/S 758 mmHg 62%
    12:00 +32°C° 0 mm 2 m/S 757 mmHg 59%
    13:00 +34°C° 0 mm 2 m/S 757 mmHg 56%
    14:00 +34°C° 0 mm 3 m/S 756 mmHg 58%
    15:00 +33°C° 0 mm 3 m/S 755 mmHg 59%
    16:00 +33°C° 0 mm 3 m/S 755 mmHg 60%
    17:00 +31°C° 0 mm 3 m/S 755 mmHg 66%
    18:00 +29°C° 0 mm 3 m/S 756 mmHg 71%
    19:00 +28°C° 0 mm 2 m/S 756 mmHg 76%
    20:00 +28°C° 0 mm 2 m/S 757 mmHg 78%
    21:00 +28°C° 0 mm 2 m/S 757 mmHg 80%
    22:00 +28°C° 0 mm 1 m/S 758 mmHg 82%
    23:00 +27°C° 0 mm 1 m/S 758 mmHg 83%

    12 Dezember, Donnerstag

    Zeit Temperatur Niederschläge Wind Luftdruck Luftfeuchtigkeit
    00:00 +27°C° 0 mm 1 m/S 757 mmHg 84%
    01:00 +27°C° 0 mm 1 m/S 757 mmHg 86%
    02:00 +27°C° 0.4 mm 1 m/S 757 mmHg 86%
    03:00 +25°C° 0.4 mm 0 m/S 757 mmHg 87%
    04:00 +25°C° 0.4 mm 0 m/S 756 mmHg 88%
    05:00 +25°C° 0.2 mm 0 m/S 757 mmHg 87%
    06:00 +25°C° 0.2 mm 0 m/S 757 mmHg 87%
    07:00 +25°C° 0.2 mm 0 m/S 758 mmHg 87%
    08:00 +27°C° 0.1 mm 0 m/S 758 mmHg 79%
    09:00 +30°C° 0.1 mm 1 m/S 758 mmHg 71%
    10:00 +32°C° 0.1 mm 1 m/S 758 mmHg 63%
    11:00 +32°C° 0 mm 1 m/S 757 mmHg 63%
    12:00 +32°C° 0 mm 2 m/S 757 mmHg 62%
    13:00 +32°C° 0 mm 2 m/S 756 mmHg 62%
    14:00 +33°C° 0.2 mm 3 m/S 756 mmHg 63%
    15:00 +33°C° 0.2 mm 3 m/S 755 mmHg 64%
    16:00 +33°C° 0.2 mm 3 m/S 755 mmHg 64%
    17:00 +31°C° 0.2 mm 3 m/S 755 mmHg 69%
    18:00 +30°C° 0.2 mm 2 m/S 756 mmHg 73%
    19:00 +29°C° 0.2 mm 2 m/S 756 mmHg 78%
    20:00 +28°C° 0.1 mm 2 m/S 757 mmHg 80%
    21:00 +28°C° 0.1 mm 2 m/S 757 mmHg 81%
    22:00 +28°C° 0.1 mm 1 m/S 758 mmHg 83%
    23:00 +28°C° 0 mm 1 m/S 758 mmHg 84%

    13 Dezember, Freitag

    Zeit Temperatur Niederschläge Wind Luftdruck Luftfeuchtigkeit
    00:00 +27°C° 0 mm 1 m/S 757 mmHg 85%
    01:00 +25°C° 0 mm 0 m/S 757 mmHg 85%
    02:00 +25°C° 0 mm 0 m/S 757 mmHg 87%
    03:00 +27°C° 0 mm 1 m/S 757 mmHg 88%
    04:00 +26°C° 0 mm 1 m/S 756 mmHg 89%
    05:00 +26°C° 0 mm 1 m/S 757 mmHg 89%
    06:00 +26°C° 0 mm 1 m/S 757 mmHg 89%
    07:00 +27°C° 0 mm 1 m/S 758 mmHg 89%
    08:00 +28°C° 0 mm 1 m/S 758 mmHg 80%
    09:00 +30°C° 0 mm 1 m/S 758 mmHg 71%
    10:00 +32°C° 0 mm 1 m/S 758 mmHg 62%
    11:00 +33°C° 0.1 mm 1 m/S 758 mmHg 57%
    12:00 +34°C° 0.1 mm 1 m/S 757 mmHg 52%
    13:00 +35°C° 0.1 mm 1 m/S 756 mmHg 48%
    14:00 +36°C° 0.1 mm 2 m/S 756 mmHg 51%
    15:00 +35°C° 0.1 mm 3 m/S 755 mmHg 55%
    16:00 +34°C° 0.1 mm 4 m/S 755 mmHg 58%
    17:00 +33°C° 0 mm 3 m/S 755 mmHg 63%
    18:00 +30°C° 0 mm 3 m/S 755 mmHg 69%
    19:00 +29°C° 0 mm 2 m/S 756 mmHg 74%
    20:00 +29°C° 0 mm 2 m/S 756 mmHg 76%
    21:00 +29°C° 0 mm 2 m/S 757 mmHg 78%
    22:00 +28°C° 0 mm 2 m/S 758 mmHg 80%
    23:00 +28°C° 0 mm 1 m/S 757 mmHg 82%
    Mehr zeigen